TimeSAST,TemperatureF,Dew PointF,Humidity,Sea Level PressureIn,VisibilityMPH,Wind Direction,Wind SpeedMPH,Gust SpeedMPH,PrecipitationIn,Events,Conditions,WindDirDegrees,DateUTC
12:00 AM,53.6,44.6,72,30.21,-9999.0,ENE,4.6,-,N/A,,Unknown,60,2013-11-24 22:00:00
1:00 AM,51.8,44.6,76,30.18,-9999.0,East,3.5,-,N/A,,Unknown,80,2013-11-24 23:00:00
2:00 AM,51.8,44.6,76,30.18,-9999.0,NE,4.6,-,N/A,,Unknown,40,2013-11-25 00:00:00
3:00 AM,50.0,46.4,87,30.18,-9999.0,NE,6.9,-,N/A,,Unknown,40,2013-11-25 01:00:00
4:00 AM,50.0,46.4,87,30.15,-9999.0,NNE,3.5,-,N/A,,Unknown,30,2013-11-25 02:00:00
5:00 AM,50.0,44.6,82,30.18,6.2,East,9.2,-,N/A,,Overcast,80,2013-11-25 03:00:00
6:00 AM,50.0,44.6,82,30.21,6.2,ENE,6.9,-,N/A,,Overcast,60,2013-11-25 04:00:00
7:00 AM,51.8,44.6,76,30.21,6.2,NE,6.9,-,N/A,,Overcast,40,2013-11-25 05:00:00
8:00 AM,53.6,44.6,72,30.21,6.2,NE,6.9,-,N/A,,Mostly Cloudy,50,2013-11-25 06:00:00
9:00 AM,57.2,46.4,67,30.18,6.2,ENE,8.1,-,N/A,,Mostly Cloudy,70,2013-11-25 07:00:00
10:00 AM,59.0,46.4,63,30.18,6.2,NE,8.1,-,N/A,,Mostly Cloudy,40,2013-11-25 08:00:00
11:00 AM,60.8,48.2,63,30.18,6.2,NNE,10.4,-,N/A,,Mostly Cloudy,20,2013-11-25 09:00:00
12:00 PM,60.8,46.4,59,30.15,6.2,NNE,8.1,-,N/A,,Mostly Cloudy,30,2013-11-25 10:00:00
1:00 PM,64.4,50.0,59,30.12,6.2,NNE,9.2,-,N/A,,Scattered Clouds,20,2013-11-25 11:00:00
2:00 PM,68.0,50.0,52,30.09,6.2,North,6.9,-,N/A,,Mostly Cloudy,10,2013-11-25 12:00:00
3:00 PM,68.0,50.0,52,30.09,6.2,NNE,10.4,-,N/A,,Scattered Clouds,20,2013-11-25 13:00:00
4:00 PM,69.8,50.0,49,30.06,6.2,NNW,6.9,-,N/A,,Scattered Clouds,340,2013-11-25 14:00:00
5:00 PM,71.6,51.8,50,30.04,6.2,NNW,8.1,-,N/A,,Partly Cloudy,340,2013-11-25 15:00:00
6:00 PM,69.8,51.8,53,30.06,6.2,North,8.1,-,N/A,,Partly Cloudy,10,2013-11-25 16:00:00
7:00 PM,64.4,51.8,64,30.06,6.2,NE,6.9,-,N/A,,Partly Cloudy,40,2013-11-25 17:00:00
8:00 PM,59.0,48.2,67,30.06,-9999.0,NE,6.9,-,N/A,,Clear,50,2013-11-25 18:00:00
9:00 PM,53.6,46.4,77,30.06,-9999.0,ENE,9.2,-,N/A,,Unknown,60,2013-11-25 19:00:00
10:00 PM,53.6,46.4,77,30.09,-9999.0,ENE,4.6,-,N/A,,Unknown,70,2013-11-25 20:00:00
11:00 PM,51.8,46.4,82,30.09,-9999.0,NE,2.3,-,N/A,,Unknown,40,2013-11-25 21:00:00